DateTimeUTC,F1_A11,F1_S11,BsB_S11,BsG_S11,BsR_S11,BbsB_S11,BbsG_S11,BbsR_S11,BaB_A11,BaG_A11,BaR_A11,Tu_S11,T_S11,Uu_S11,U_S11,P_S11,T1_A11
2021-12-05T20:00:00Z,00000200,21000000,,,,,,,-000.15,-000.36,-000.15,20.7,27.5,,00.0,0632.7,31.2
2021-12-05T20:01:00Z,00000200,21000000,,,,,,,-000.05,-000.09,-000.39,20.7,27.4,,00.0,0632.7,31.2
2021-12-05T20:02:00Z,00000200,21000000,,,,,,,-000.11,-000.02,0000.29,20.6,27.4,,00.0,0632.7,31.2
2021-12-05T20:03:00Z,00000200,61000000,,,,,,,0000.48,0000.20,-000.22,20.6,27.4,,00.0,0632.7,31.2
2021-12-05T20:04:00Z,00000200,41000000,0000.68,0000.27,-000.15,0000.55,0000.18,0000.01,-000.34,-000.18,0000.45,20.6,27.2,00.0,00.0,0633.5,31.1
2021-12-05T20:05:00Z,00000200,01000000,0000.10,-000.08,0000.08,0000.57,0000.12,0000.09,0000.38,0000.13,-000.18,20.6,27.1,,00.0,0633.5,31.1
2021-12-05T20:06:00Z,00000200,01000000,0000.39,-000.12,-000.05,-000.16,0000.08,-000.38,0000.23,0000.22,0000.29,20.6,27.1,,00.0,0633.5,31.1
2021-12-05T20:07:00Z,00000200,01000000,0000.63,0000.36,-000.23,-000.01,0000.52,-000.15,-000.06,-000.07,-000.29,20.6,27.1,,00.0,0633.6,31.1
2021-12-05T20:08:00Z,00000200,01000000,0000.48,0000.30,-000.17,0000.15,0000.29,-000.05,0000.07,0000.41,0000.20,20.6,27.1,,00.0,0633.6,31.1
2021-12-05T20:09:00Z,00000200,01000000,0000.69,0000.64,0000.20,-000.22,0000.19,0000.41,0000.44,-000.24,0000.16,20.6,27.1,,00.0,0633.6,31.2
2021-12-05T20:10:00Z,00000200,01000000,0000.27,-000.13,0000.02,0000.01,0000.09,-000.37,-000.17,0000.47,0000.16,20.7,27.1,,00.0,0633.6,31.2
2021-12-05T20:11:00Z,00000200,01000000,0000.63,0000.14,-000.10,0000.86,-000.15,0000.13,-000.00,0000.05,-000.05,20.8,27.1,,00.0,0633.6,31.2
2021-12-05T20:12:00Z,00000200,01000000,0001.25,0000.18,-000.17,-000.07,0000.26,-000.42,0000.48,0000.19,0000.22,20.9,27.2,,00.0,0633.6,31.2
2021-12-05T20:13:00Z,00000200,01000000,0000.62,0000.05,0000.27,0000.40,-000.07,0000.23,0000.10,0000.03,0000.32,20.9,27.2,,00.0,0633.7,31.2
2021-12-05T20:14:00Z,00000200,01000000,0000.60,0000.45,0000.19,-000.06,-000.10,0000.05,-000.22,0000.15,-000.11,21.0,27.2,,00.0,0633.7,31.2
2021-12-05T20:15:00Z,00000200,01000000,0001.00,-000.08,0000.03,0000.05,-000.03,-000.22,-000.01,-000.09,-000.06,21.1,27.3,,00.0,0633.7,31.3
2021-12-05T20:16:00Z,00000200,01000000,-000.74,0000.36,-000.12,-000.21,-000.16,0000.05,0000.27,-000.05,-000.30,21.1,27.3,,00.0,0633.7,31.3
2021-12-05T20:17:00Z,00000200,01000000,0000.44,0000.16,-000.09,0000.18,0000.42,0000.22,0000.06,0000.07,0000.41,21.1,27.3,,00.0,0633.7,31.3
2021-12-05T20:18:00Z,00000200,01000000,0000.90,0000.12,0000.13,0000.42,0000.18,-000.45,0000.06,0000.24,-000.06,21.0,27.3,,00.0,0633.7,31.2
2021-12-05T20:19:00Z,00000200,01000000,0000.25,-000.13,-000.09,0000.39,-000.12,0000.03,0000.26,-000.19,0000.20,20.9,27.3,,00.0,0633.7,31.2
2021-12-05T20:20:00Z,00000200,01000000,0000.11,0000.29,0000.21,-000.18,0000.21,0000.45,0000.10,0000.73,0000.02,20.9,27.2,,00.0,0633.7,31.2
2021-12-05T20:21:00Z,00000200,01000000,0000.40,0000.24,-000.38,0000.22,0000.17,-000.10,-000.11,-000.42,-000.05,20.8,27.2,,00.0,0633.6,31.2
2021-12-05T20:22:00Z,00000200,01000000,0001.06,-000.01,0000.07,0000.04,-000.05,0000.23,0000.32,0000.33,0000.31,20.8,27.2,,00.0,0633.6,31.2
2021-12-05T20:23:00Z,00000200,01000000,0000.86,0000.12,0000.15,0000.04,0000.20,0000.04,0000.00,-000.01,-000.06,20.9,27.2,,00.0,0633.6,31.2
2021-12-05T20:24:00Z,00000200,01000000,0000.58,0000.24,-000.12,-000.02,-000.03,0000.34,-000.02,0000.04,0000.21,20.9,27.2,,00.0,0633.6,31.2
2021-12-05T20:25:00Z,00000200,01000000,0000.48,-000.17,-000.07,-000.70,0000.09,-000.33,0000.32,-000.06,0000.05,21.0,27.2,,00.0,0633.6,31.2
2021-12-05T20:26:00Z,00000200,01000000,0001.40,0000.03,0000.01,0000.12,0000.19,-000.22,0000.15,0000.32,0000.24,21.1,27.2,,00.0,0633.5,31.2
2021-12-05T20:27:00Z,00000200,01000000,0000.18,0000.16,0000.18,0000.04,0000.13,0000.24,0000.15,-000.03,0000.01,21.1,27.3,,00.0,0633.6,31.2
2021-12-05T20:28:00Z,00000200,01000000,0000.30,0000.36,-000.03,0000.46,0000.14,0000.23,0000.01,0000.17,0000.33,21.2,27.3,,00.0,0633.7,31.3
2021-12-05T20:29:00Z,00000200,01000000,0000.08,0000.01,0000.06,0000.56,0000.35,-000.34,0000.16,-000.03,-000.07,21.3,27.3,,00.0,0633.7,31.3
2021-12-05T20:30:00Z,00000200,01000000,0000.03,-000.07,0000.11,0000.02,0000.31,-000.16,-000.13,-000.03,-000.10,21.3,27.4,,00.0,0633.6,31.3
2021-12-05T20:31:00Z,00000200,01000000,0000.59,0000.04,0000.12,0000.05,0000.21,-000.17,0000.44,0000.36,-000.01,21.2,27.4,,00.0,0633.5,31.3
2021-12-05T20:32:00Z,00000200,01000000,0000.25,-000.01,-000.05,-000.77,-000.08,-000.18,-000.08,-000.11,0000.23,21.1,27.4,,00.0,0633.6,31.3
2021-12-05T20:33:00Z,00000200,01000000,0000.87,-000.02,0000.18,0001.20,-000.23,0000.07,0000.31,0000.49,-000.10,21.1,27.3,,00.0,0633.5,31.2
2021-12-05T20:34:00Z,00000200,01000000,0000.75,0000.23,-000.05,0000.36,0000.12,-000.20,-000.09,-000.26,-000.06,21.0,27.3,,00.0,0633.5,31.2
2021-12-05T20:35:00Z,00000200,01000000,0000.24,-000.23,0000.44,0000.66,0000.03,0000.20,0000.10,0000.29,0000.10,21.0,27.3,,00.0,0633.5,31.2
2021-12-05T20:36:00Z,00000200,01000000,-000.17,0000.04,0000.03,0000.07,0000.27,0000.06,-000.41,-000.01,-000.06,20.9,27.3,,00.0,0633.5,31.2
2021-12-05T20:37:00Z,00000200,01000000,0000.16,0000.02,-000.20,0000.48,0000.23,0000.21,0000.30,-000.08,0000.33,20.9,27.2,,00.0,0633.5,31.2
2021-12-05T20:38:00Z,00000200,01000000,0000.21,0000.25,-000.04,0000.29,-000.03,-000.10,0000.38,0000.34,0000.21,20.9,27.2,,00.0,0633.4,31.2
2021-12-05T20:39:00Z,00000200,01000000,-000.25,-000.10,0000.09,0000.64,0000.02,0000.05,-000.08,-000.16,-000.13,21.0,27.2,,00.0,0633.4,31.2
2021-12-05T20:40:00Z,00000200,01000000,0000.26,0000.19,0000.12,-000.30,0000.13,0000.45,0000.18,0000.22,0000.19,21.0,27.3,,00.0,0633.4,31.2
2021-12-05T20:41:00Z,00000200,01000000,-000.30,-000.23,-000.35,0000.21,0000.06,-000.30,0000.10,0000.14,0000.18,21.1,27.3,,00.0,0633.4,31.3
2021-12-05T20:42:00Z,00000200,01000000,0000.34,0000.40,-000.01,0000.04,-000.02,-000.19,0000.16,0000.15,-000.20,21.2,27.3,,00.0,0633.3,31.3
2021-12-05T20:43:00Z,00000200,01000000,0000.18,-000.15,-000.31,0000.10,0000.37,0000.07,-000.15,-000.32,0000.23,21.2,27.4,,00.0,0633.2,31.3
2021-12-05T20:44:00Z,00000200,01000000,0000.46,0000.23,-000.28,0000.45,0000.32,-000.10,0000.52,0000.74,0000.07,21.1,27.4,,00.0,0633.2,31.3
2021-12-05T20:45:00Z,00000200,01000000,0000.05,0000.28,0000.08,0001.00,0000.32,-000.00,0000.14,0000.17,0000.25,21.1,27.4,,00.0,0633.2,31.2
2021-12-05T20:46:00Z,00000200,01000000,0000.80,0000.31,0000.06,0000.02,0000.13,0000.12,0000.07,-000.37,0000.08,21.1,27.3,,00.0,0633.2,31.2
2021-12-05T20:47:00Z,00000200,01000000,0000.66,0000.29,-000.41,-000.11,0000.14,-000.26,-000.17,0000.07,-000.17,21.0,27.3,,00.0,0633.1,31.2
2021-12-05T20:48:00Z,00000200,01000000,0000.48,-000.10,0000.09,0000.65,0000.28,0000.33,-000.21,0000.13,0000.07,20.9,27.3,,00.0,0633.0,31.2
2021-12-05T20:49:00Z,00000200,01000000,0000.83,0000.36,-000.06,0000.26,0000.50,-000.09,0000.49,-000.03,0000.00,20.9,27.2,,00.0,0632.9,31.1
2021-12-05T20:50:00Z,00000200,01000000,0000.16,0000.06,0000.03,0000.35,-000.10,-000.09,0000.23,0000.40,0000.13,20.8,27.2,,00.0,0632.9,31.1
2021-12-05T20:51:00Z,00000200,01000000,0000.83,0000.44,-000.06,0000.55,0000.23,0000.00,-000.29,-000.40,0000.14,20.8,27.2,,00.0,0632.8,31.1
2021-12-05T20:52:00Z,00000200,01000000,0000.19,0000.07,-000.16,0000.20,0000.27,-000.19,0000.19,0000.06,-000.42,20.7,27.1,,00.0,0632.9,31.1
2021-12-05T20:53:00Z,00000200,01000000,0000.59,0000.18,-000.09,-000.35,0000.26,0000.13,-000.06,0000.40,0000.26,20.8,27.1,,00.0,0633.0,31.1
2021-12-05T20:54:00Z,00000200,01000000,0000.56,0000.22,-000.21,-000.22,0000.09,-000.39,0000.24,0000.28,0000.18,20.8,27.1,,00.0,0633.0,31.2
2021-12-05T20:55:00Z,00000200,01000000,0000.32,0000.10,-000.12,0000.62,0000.36,-000.24,0000.23,-000.13,-000.02,20.9,27.2,,00.0,0633.0,31.2
2021-12-05T20:56:00Z,00000200,01000000,-000.20,0000.06,-000.02,0000.04,0000.07,-000.15,-000.04,0000.10,0000.34,20.9,27.2,,00.0,0632.9,31.2
2021-12-05T20:57:00Z,00000200,41000000,,,,,,,0000.59,0000.25,0000.32,21.0,27.3,,00.0,0633.0,31.2
2021-12-05T20:58:00Z,00000200,61000000,,,,,,,-000.34,-000.23,-000.46,20.8,27.3,,00.0,0632.1,31.3
2021-12-05T20:59:00Z,00000200,21000000,,,,,,,-000.07,0000.02,0000.38,20.8,27.4,,00.0,0632.1,31.3
